sat.trackr.live / text

‹ back to catalog

HAWK-2B

NORAD 47508 · 2021-006CZ

PAYLOAD ACTIVE UNKNOWN

§ Identity

Operator
Country
US
Launch date
2021-01-24
Launch site
AFETR
Launch vehicle
Mass (kg)
RCS (m²)

Purposes: tech_demo

External: N2YO · Heavens-Above · Gunter

§ Orbital elements

Epoch: 2026-09-19T23:28:50.875104Z

Period
93.76 min
Inclination
97.2108°
Eccentricity
0.0005728
Mean motion
15.35882552 rev/d
Perigee alt
454.4 km
Apogee alt
462.2 km
Semi-major
6,836.4 km
B*
1.3385e-4
RAAN
304.3401°
Arg perigee
207.7238°
Mean anomaly
152.3701°
Rev number
31,404

§ Raw data

HAWK-2B1 47508U 21006CZ  26262.97836661  .00004597  00000+0  13385-3 0  99942 47508  97.2108 304.3401 0005728 207.7238 152.3701 15.35882552314044

JSON: /api/v1/satellites/47508 · /tle

For live sub-satellite position, see the globe view (requires WebGL).

§ Visibility from observer

Set your observer location to see the next 7 days of passes ≥ 10°. The values pass through the URL so the page stays shareable.

No JS? Fill the form by hand. The geolocation button needs JavaScript.